GFSMW_925_spd_276.txt.gz
Wind_Speed
10 9 8 9 10 11 12 13 17 17 15 14 14 12 13 11 12 12 13 14 13 13 11 10 11 10 12 12 14 12 11 11 17 12 16 14 10 8 8 11 13 12 16
11 10 10 10 10 12 12 13 13 12 10 10 11 11 11 11 12 11 13 13 13 13 13 11 11 11 9 13 14 14 13 10 15 13 12 5 13 4 22 7 11 16 19
14 12 12 12 12 12 12 12 12 12 11 12 13 13 13 11 10 9 11 12 13 13 13 12 12 11 11 12 13 14 14 11 11 13 9 5 5 20 4 14 11 22 21
14 14 15 14 13 13 14 14 13 13 12 10 10 9 9 11 9 10 10 11 12 12 12 12 11 11 11 12 11 12 12 12 12 8 11 5 6 5 8 11 25 20 25
15 14 16 15 14 14 14 14 14 13 12 12 12 12 12 11 10 9 9 10 10 11 11 11 11 11 11 11 12 12 13 12 11 10 11 9 11 7 12 12 19 27 25
17 18 17 17 16 15 15 15 15 14 13 12 13 13 12 11 10 8 8 8 8 9 11 11 11 12 12 12 12 12 13 12 11 11 11 11 12 14 10 13 21 25 24
20 19 21 20 19 18 17 17 16 15 14 13 13 13 12 12 10 8 7 7 8 8 11 11 12 12 11 10 10 11 11 12 11 12 11 12 12 14 16 19 22 21 31
21 21 24 23 23 21 19 18 17 17 15 14 13 12 11 10 9 8 8 8 9 9 9 9 10 10 10 11 10 10 11 11 11 12 12 12 13 14 15 17 22 16 18
22 22 25 24 24 23 21 20 19 17 15 14 13 11 10 10 10 9 9 9 9 8 8 9 9 10 11 12 11 11 13 12 12 12 13 13 13 15 15 17 19 18 13
25 23 26 26 24 23 22 20 19 19 17 15 13 11 10 9 10 10 11 10 9 9 9 9 9 10 12 13 12 10 12 12 12 12 14 14 14 15 16 17 19 21 23
28 25 28 28 26 25 24 22 21 19 17 15 14 13 11 10 10 10 10 10 10 9 9 8 9 10 11 12 11 10 12 12 12 13 13 14 15 16 16 18 20 22 25
28 25 31 32 29 27 25 23 21 20 17 15 14 12 11 10 10 10 9 9 9 9 9 9 9 10 10 10 11 11 11 12 13 13 13 14 15 16 17 20 21 23 26
27 25 29 31 31 29 26 24 23 21 18 17 15 13 12 11 11 10 10 10 10 9 9 9 8 8 9 10 11 10 11 11 11 12 14 14 16 18 20 22 24 25 27
29 26 24 30 32 30 28 26 24 22 21 19 17 15 14 13 12 11 11 10 10 10 9 8 7 7 9 10 12 11 10 10 11 12 13 14 16 18 21 23 25 27 29
29 28 26 26 33 32 30 27 26 25 22 20 18 16 15 14 13 12 11 11 10 9 8 7 6 6 9 11 14 11 10 11 12 12 13 14 17 20 19 25 27 28 29
31 29 28 32 34 34 32 30 28 26 23 21 19 18 17 15 14 13 12 11 10 9 7 6 6 6 7 12 14 9 9 10 12 14 15 16 16 22 24 27 28 25 26
30 31 30 34 36 36 35 33 31 28 25 22 21 19 18 17 15 13 12 11 10 9 7 6 5 5 7 13 14 10 8 9 11 12 14 17 19 21 27 28 26 24 24
30 28 29 37 39 38 35 33 32 30 27 24 22 20 19 17 15 14 12 11 10 8 6 5 4 4 6 14 15 13 8 9 10 12 13 16 19 22 27 28 26 26 26
28 33 38 38 39 39 38 36 33 30 27 25 24 22 20 18 16 14 13 11 9 8 7 5 5 5 5 13 14 14 10 11 12 12 13 15 20 25 28 26 27 29 28
29 35 42 42 41 40 40 37 34 31 28 26 24 22 20 18 17 15 12 10 9 8 7 6 6 8 5 11 13 14 10 12 13 14 15 17 22 25 27 24 26 30 33
33 38 41 42 43 42 41 38 35 31 28 26 24 22 20 18 17 15 12 11 9 8 7 6 6 5 4 6 12 13 9 11 12 13 15 16 24 24 23 22 24 26 31
32 39 38 39 44 45 42 38 35 32 29 28 26 24 21 19 18 16 13 11 9 8 6 6 5 3 3 5 11 14 13 13 10 12 13 16 23 24 23 24 29 28 26
31 41 39 39 39 44 42 37 35 34 32 30 27 25 22 19 18 16 14 11 9 7 6 5 4 3 3 4 12 12 14 13 10 11 14 19 21 21 21 27 29 26 29
29 38 40 38 39 43 41 38 38 36 34 32 29 26 23 21 18 15 13 11 9 7 6 5 4 3 3 6 8 10 10 12 11 12 13 17 19 19 20 22 24 24 28
33 37 36 37 40 44 42 41 40 38 35 32 29 27 23 21 19 14 11 10 8 7 7 5 4 3 4 5 7 9 10 12 11 13 13 16 19 20 22 23 24 25 28
32 34 38 39 41 43 43 42 42 41 38 33 30 28 25 22 19 17 14 13 10 9 10 9 8 4 4 4 5 6 10 11 14 10 13 15 17 20 22 25 26 27 29

GFSMW_925_spd_279.txt.gz
Wind_Speed
13 13 11 11 13 12 12 12 14 15 16 16 13 12 10 12 12 11 10 11 10 11 10 9 10 9 11 12 13 13 11 11 16 13 19 12 9 8 14 13 11 19 19
14 13 13 13 12 14 12 13 14 13 10 9 8 9 9 10 10 10 11 11 12 12 12 11 10 11 9 13 14 15 13 9 15 16 12 5 7 18 10 12 12 23 18
16 13 14 13 13 13 14 14 13 12 10 10 11 11 13 10 10 8 9 11 12 13 12 12 11 10 10 12 13 14 15 12 12 14 11 5 5 17 9 8 17 16 23
16 14 16 15 14 13 12 14 14 13 13 12 10 10 9 9 8 8 9 10 11 11 11 11 10 11 11 12 11 13 12 13 13 11 11 7 8 4 7 13 17 26 24
17 17 18 18 16 16 15 14 14 13 12 10 10 10 10 11 9 9 9 9 9 10 10 10 11 11 11 11 12 13 14 12 12 12 13 12 11 9 12 10 21 23 24
19 18 20 20 19 17 16 16 15 14 13 12 11 10 11 11 10 9 9 7 8 9 10 10 12 12 11 11 12 12 13 13 13 13 13 13 13 15 16 12 19 22 24
21 20 19 23 22 20 18 17 16 15 14 14 13 13 12 12 12 9 8 8 8 8 10 11 12 11 11 11 10 12 12 13 13 14 13 12 13 15 16 16 19 20 28
20 21 22 23 23 22 21 19 18 17 16 15 15 14 13 11 10 8 9 9 9 9 9 10 10 11 11 10 10 12 12 12 12 13 14 12 13 15 16 17 20 14 22
24 23 26 26 25 25 23 22 21 19 17 16 15 13 12 10 11 10 10 10 10 9 9 9 9 10 10 11 10 12 13 12 12 12 13 13 14 15 16 16 17 18 12
25 23 24 29 27 26 24 22 21 20 19 16 15 14 12 12 11 10 10 11 10 10 9 8 9 9 11 12 11 11 12 12 12 12 13 14 15 15 16 17 18 20 22
26 24 26 31 30 28 26 25 23 22 20 17 16 15 14 13 12 12 11 11 11 10 9 9 9 10 11 12 11 10 11 11 11 12 13 14 15 16 16 18 18 21 24
26 25 27 31 30 30 29 27 25 23 21 19 18 17 15 14 13 13 12 11 11 10 10 9 9 9 10 10 10 10 10 10 10 11 12 13 14 15 17 19 20 22 25
27 25 23 28 31 31 30 30 27 25 23 21 20 18 17 15 14 13 12 12 11 11 10 9 9 8 9 9 9 8 8 8 9 10 11 13 14 15 19 20 23 24 26
28 26 25 25 32 33 32 31 29 27 25 23 21 19 18 17 15 14 13 12 11 10 9 8 8 8 9 9 8 6 6 7 8 9 10 11 14 15 18 21 23 24 26
30 28 25 23 33 33 32 31 30 28 27 24 22 20 19 17 16 15 13 12 11 10 9 9 8 7 8 8 7 4 5 6 8 8 10 12 11 20 18 22 23 24 26
29 29 28 27 32 35 34 32 32 30 27 25 23 21 20 18 17 16 14 13 12 10 9 8 7 6 5 6 6 5 4 6 7 9 10 12 13 17 22 25 24 24 24
26 29 29 26 33 36 35 34 33 31 29 26 24 23 21 20 19 17 16 14 13 11 10 8 7 6 4 7 6 5 5 5 7 8 11 13 15 16 22 24 22 22 24
27 27 24 33 37 38 37 36 34 32 29 28 26 25 23 22 20 18 17 15 13 12 10 8 7 5 3 7 6 6 3 5 6 7 9 11 14 18 22 21 22 24 24
24 26 34 34 36 38 38 38 36 34 31 30 28 27 25 23 21 20 18 16 14 12 10 9 7 5 2 8 6 6 4 5 6 7 8 10 14 20 22 20 22 26 26
24 25 35 36 36 38 39 39 38 36 33 31 29 27 25 24 22 20 19 16 14 13 11 9 7 7 2 6 6 7 5 5 6 7 8 12 18 19 20 20 22 27 31
28 32 37 37 39 38 39 37 37 36 34 31 29 28 26 25 23 21 18 17 15 14 11 10 7 6 5 2 8 8 6 6 7 8 10 11 20 21 21 21 21 26 29
28 36 34 39 41 42 41 37 36 36 35 33 31 30 28 25 24 22 19 17 16 15 13 11 9 6 4 4 7 9 9 9 6 8 9 13 20 21 20 20 25 27 23
26 37 34 36 41 45 43 38 37 38 37 35 33 31 29 26 24 22 20 18 16 15 14 12 11 9 6 2 7 8 11 9 6 7 11 17 18 18 18 21 24 24 26
20 32 35 33 34 41 42 38 42 40 39 36 34 32 30 27 24 21 20 18 16 15 14 12 11 9 7 4 2 2 4 7 6 7 9 12 14 15 17 19 22 23 25
22 31 32 33 36 43 42 42 43 43 39 36 34 32 29 28 26 21 18 18 13 14 15 12 11 10 8 4 3 3 2 5 6 8 8 12 14 17 19 21 22 23 26
18 25 31 34 37 39 39 42 44 45 41 37 34 32 30 28 26 21 15 19 17 16 16 16 13 13 10 7 4 4 7 9 9 7 9 11 13 16 18 20 22 23 26

GFSMW_925_spd_282.txt.gz
Wind_Speed
15 18 16 18 21 16 14 14 15 15 15 16 15 14 14 12 14 13 11 9 12 10 12 12 10 14 14 15 15 17 12 16 23 15 15 13 16 25 22 22 26 26 27
15 15 16 20 18 17 15 16 18 19 19 14 14 14 15 13 13 12 13 11 13 13 12 13 13 14 14 16 16 18 15 16 21 15 10 5 4 21 24 23 24 29 27
16 14 17 18 24 20 19 18 20 20 18 16 19 18 15 16 15 13 12 12 13 13 14 13 14 14 14 15 17 18 17 16 18 23 11 4 3 15 12 19 23 29 25
15 13 16 18 20 22 19 19 19 19 16 18 16 19 20 16 15 14 12 13 13 14 13 15 15 15 14 17 15 16 17 18 18 14 19 15 14 3 5 17 20 27 29
17 15 16 19 18 21 24 22 20 17 17 18 16 13 18 18 15 15 13 13 14 15 14 15 15 14 15 14 14 17 18 19 18 18 18 18 16 20 6 4 22 24 25
17 16 20 21 20 19 19 20 20 17 15 15 16 15 18 18 17 15 14 13 13 13 14 13 13 14 13 13 16 16 18 19 19 19 18 18 13 14 11 6 15 18 20
17 17 17 21 23 22 21 20 20 19 18 17 15 18 17 17 18 15 14 14 14 13 12 12 13 13 14 16 16 17 18 18 18 18 17 17 17 15 15 13 13 10 16
17 18 18 23 25 25 24 23 23 22 20 20 19 18 18 17 16 15 14 15 15 13 12 13 13 15 16 15 15 17 16 17 17 18 17 15 16 15 15 15 15 9 8
21 19 19 23 26 26 25 25 24 23 22 21 21 19 17 16 16 16 16 16 15 14 14 13 14 15 16 15 15 16 16 16 15 16 16 15 16 16 15 15 16 14 7
23 20 18 24 25 26 24 25 24 23 23 23 21 19 18 18 17 17 17 17 17 16 15 14 15 15 15 15 14 14 14 15 14 14 15 16 17 15 16 17 17 18 18
27 23 20 29 27 26 26 25 26 26 25 24 22 22 20 19 17 18 18 17 17 16 15 15 14 14 14 13 12 13 13 13 14 14 14 15 16 17 18 18 18 21 20
26 23 21 28 29 27 29 27 27 27 25 24 25 23 22 20 19 18 18 17 17 16 16 14 14 13 13 12 12 12 12 13 14 13 13 15 15 15 18 19 20 20 22
26 23 22 21 28 29 29 28 27 28 28 26 25 25 23 22 20 19 19 18 17 17 16 14 14 13 12 12 11 11 11 11 11 11 12 12 14 16 18 20 21 21 22
25 23 21 20 28 30 30 29 28 28 28 28 27 25 24 23 22 21 19 19 17 17 16 15 14 12 11 11 11 8 9 9 9 9 10 10 13 17 18 20 20 22 23
26 26 23 21 30 32 32 31 30 31 30 28 27 27 26 24 23 22 20 19 18 17 16 16 14 10 9 10 9 10 7 7 8 8 10 11 12 16 18 19 21 26 25
28 25 24 23 27 33 34 34 34 34 32 30 28 28 28 26 24 22 21 20 19 17 16 15 13 7 9 8 8 10 9 7 7 8 8 9 13 18 22 23 19 22 26
25 25 26 24 30 34 35 33 34 34 33 31 30 29 29 27 25 24 22 20 19 18 16 15 12 7 8 7 7 7 8 7 6 6 6 8 10 17 23 23 20 21 22
22 23 21 28 33 35 34 33 34 33 32 31 31 30 30 28 26 25 23 22 20 18 17 15 12 6 7 5 7 8 7 6 4 5 5 7 10 19 21 21 21 23 23
17 21 30 32 34 36 36 34 34 34 32 32 33 32 31 31 29 26 25 23 21 19 17 15 13 7 5 5 5 7 7 4 4 4 4 7 14 16 18 19 20 30 30
15 21 33 34 37 39 41 40 37 36 34 34 34 33 32 31 30 28 28 24 22 20 17 15 13 9 5 5 6 9 6 5 5 3 6 10 15 15 16 19 18 27 32
18 30 34 36 41 42 41 36 35 34 34 33 34 33 32 31 30 29 27 26 23 21 19 16 13 12 5 6 7 8 4 7 3 3 4 10 13 15 17 18 21 25 26
15 28 30 35 41 44 43 38 36 36 32 33 33 32 31 30 29 29 27 25 24 23 21 18 15 11 10 5 6 6 6 6 4 3 5 12 14 17 18 20 22 24 26
15 23 27 32 36 42 42 38 36 38 37 36 34 34 32 30 31 29 28 26 25 23 22 20 18 15 11 5 4 6 6 6 4 5 9 12 13 15 17 19 22 23 28
11 18 23 26 30 39 39 38 39 40 40 38 36 35 34 32 30 27 27 25 25 24 22 21 21 18 14 9 6 4 1 3 2 5 7 10 11 13 15 19 21 23 26
18 19 20 24 29 37 37 38 41 42 40 37 36 36 33 33 31 26 25 24 24 23 24 22 23 22 19 16 11 11 7 5 6 8 7 10 13 15 17 19 21 23 26
25 14 23 25 29 35 37 39 41 44 42 37 36 35 35 34 30 32 23 26 24 23 23 22 24 22 18 14 12 9 10 10 9 7 6 9 12 14 16 19 21 22 25

GFSMW_925_spd_285.txt.gz
Wind_Speed
13 20 30 28 26 22 23 23 24 23 22 21 18 16 18 16 15 12 10 11 14 11 12 14 13 12 14 16 15 15 18 24 20 13 25 28 28 28 29 28 29 29 29
15 18 24 26 24 22 19 21 22 24 22 21 18 17 22 17 15 13 13 12 13 12 12 13 15 14 15 16 17 17 20 23 27 10 5 3 3 13 21 25 28 28 27
17 14 20 22 22 22 22 22 23 24 23 21 22 24 21 19 19 15 15 14 14 14 14 14 14 15 15 18 19 18 19 20 23 28 9 3 2 7 7 21 27 28 26
16 12 17 19 23 21 22 24 27 27 24 25 27 28 25 21 20 17 16 15 14 15 16 17 16 17 16 19 20 18 20 21 19 16 23 23 16 3 4 8 22 25 27
20 18 16 26 25 24 25 27 27 25 25 26 22 24 22 26 23 18 17 16 15 15 17 16 17 18 19 19 19 19 19 21 24 24 12 14 17 19 11 2 15 19 27
20 18 26 30 31 29 28 28 29 26 27 26 24 20 31 30 25 21 21 19 18 17 16 15 17 19 18 19 18 18 19 19 23 24 24 25 13 14 11 4 10 16 20
21 20 20 20 28 29 31 32 31 29 26 23 25 31 29 24 24 24 25 22 19 17 17 16 19 19 17 19 17 19 22 23 24 23 23 21 20 17 16 12 5 6 8
18 20 19 26 28 31 34 30 35 30 28 26 28 28 25 24 25 25 25 22 20 19 16 17 19 19 15 19 19 22 21 22 23 22 21 20 18 18 18 16 11 4 2
23 23 22 32 31 31 31 31 32 30 28 28 28 27 27 27 26 28 27 21 20 20 17 18 19 19 17 19 20 22 22 24 23 21 22 21 19 17 16 16 17 12 3
24 22 20 31 34 41 41 33 33 32 31 31 29 28 28 28 28 26 23 22 23 22 19 19 19 20 19 20 21 21 20 23 19 18 19 18 15 16 17 16 17 16 12
27 25 23 32 34 34 33 37 35 35 34 33 31 31 30 27 25 25 26 27 25 23 20 19 20 20 20 19 20 20 18 21 18 15 15 16 14 17 19 18 20 19 18
26 24 20 32 35 35 37 37 35 33 34 34 32 32 30 29 29 27 27 27 27 23 22 20 20 20 19 18 19 18 16 16 16 14 12 15 14 17 19 21 20 20 20
24 20 20 19 32 35 37 37 37 37 35 33 34 33 33 32 30 29 29 28 28 26 23 21 21 21 21 19 17 17 15 15 14 11 11 14 15 17 22 22 20 23 26
15 16 20 20 32 36 36 35 35 38 37 35 36 35 33 34 34 32 30 30 28 27 24 20 19 19 21 20 18 16 14 13 13 12 11 12 15 19 22 21 20 24 26
22 18 12 17 27 32 34 34 35 40 38 36 37 36 34 34 33 31 30 30 28 26 24 21 18 17 18 19 18 17 14 13 13 12 10 10 14 16 19 17 18 22 24
25 27 25 21 26 32 35 36 35 36 36 35 34 37 36 35 33 32 31 30 29 28 25 20 18 17 17 18 17 17 15 12 10 9 10 6 11 17 18 17 16 17 19
25 23 23 21 28 32 38 38 38 38 36 35 36 37 37 37 36 35 34 32 31 29 26 22 18 17 17 18 18 16 14 12 10 7 6 6 13 17 19 19 19 23 21
24 26 21 28 37 38 38 37 38 38 34 33 34 35 36 36 37 36 34 34 32 30 28 23 18 17 17 17 17 15 13 13 10 7 6 9 14 16 18 20 21 26 28
21 20 36 39 40 42 42 40 39 38 36 34 35 35 36 35 36 35 35 33 31 30 26 22 19 16 17 16 16 13 16 14 12 7 7 10 13 14 16 18 24 28 30
19 19 28 31 34 38 42 42 39 40 38 37 36 35 36 36 34 34 36 35 33 31 26 23 18 15 16 15 16 15 16 15 13 8 6 9 11 12 13 18 22 25 27
9 25 35 31 38 40 40 37 38 37 38 37 37 35 35 35 36 38 37 35 34 31 28 24 21 16 13 15 16 13 16 15 13 7 6 8 11 10 12 16 18 18 22
14 25 29 33 36 44 45 39 38 40 38 38 37 35 35 32 36 38 36 35 34 33 31 25 22 17 15 14 14 13 17 14 11 9 8 11 10 10 12 15 17 19 23
25 17 22 29 37 41 41 37 38 41 41 41 39 38 38 34 37 38 38 37 36 33 31 29 25 21 16 15 14 14 16 13 12 11 11 10 8 9 12 15 17 21 26
26 24 28 22 29 37 39 39 41 41 43 42 40 39 38 33 36 35 36 33 34 31 28 27 27 24 21 17 16 15 14 14 13 12 11 8 8 9 12 15 18 21 24
30 33 25 18 29 35 35 37 41 42 39 39 39 36 36 35 34 32 31 33 34 37 34 32 33 31 26 22 19 18 16 14 14 13 10 10 10 11 14 15 18 21 25
38 37 30 32 30 36 36 38 42 43 42 38 37 38 35 34 33 37 28 28 33 32 31 30 31 28 24 23 19 16 16 17 16 13 11 10 9 10 11 14 17 20 24

GFSMW_925_spd_288.txt.gz
Wind_Speed
15 23 28 38 40 41 39 36 34 31 29 26 24 20 18 15 13 11 11 10 10 8 9 9 7 6 8 11 11 13 13 20 33 31 31 29 26 26 26 27 26 24 22
15 18 25 28 32 38 36 33 32 30 27 26 24 20 22 16 15 14 13 12 12 11 10 10 10 10 11 13 14 13 19 20 12 7 9 3 6 17 21 27 26 24 23
19 14 18 22 29 34 34 31 30 29 27 25 22 23 18 20 19 16 15 13 12 13 11 10 11 12 12 14 14 14 17 20 21 11 5 2 2 2 6 21 23 24 25
16 15 17 21 29 32 29 28 28 28 27 26 26 33 29 25 21 20 18 16 14 14 13 12 12 14 14 16 16 14 16 18 19 19 24 19 7 2 1 7 16 21 21
18 17 20 30 34 31 30 27 28 29 30 30 32 33 29 24 25 22 20 18 16 15 14 15 15 16 16 17 17 17 18 19 19 17 10 19 21 16 9 1 8 10 17
16 18 26 25 28 32 31 32 31 33 30 33 34 31 32 33 30 26 24 21 19 18 15 16 17 17 17 17 18 18 19 21 23 24 24 19 9 9 11 5 2 5 9
21 19 17 21 23 29 34 33 35 32 33 34 33 33 33 34 30 29 27 25 23 20 18 18 19 18 17 18 19 21 21 22 25 26 27 26 24 19 14 13 4 2 5
20 20 18 24 28 29 34 33 34 33 35 33 32 32 34 33 30 29 28 25 24 22 21 20 19 19 18 18 21 23 23 23 25 26 26 24 21 19 19 14 10 3 3
19 21 19 28 30 32 38 42 38 35 34 36 31 34 37 33 33 30 26 25 24 23 23 22 21 19 19 19 21 24 25 25 26 25 24 22 20 19 18 17 14 6 2
23 23 21 30 35 37 37 41 42 40 35 33 36 39 35 33 34 33 29 27 26 25 25 24 22 21 22 21 22 24 23 25 22 22 22 21 20 19 17 17 16 14 6
18 21 19 26 30 31 32 33 37 39 37 36 36 36 36 34 35 35 30 28 26 26 26 26 25 24 24 22 23 22 22 23 21 20 20 20 17 19 17 16 16 15 13
19 19 16 25 29 30 31 37 40 43 39 36 35 34 34 35 36 34 30 29 29 26 26 26 25 25 24 23 23 23 21 21 20 19 19 18 16 18 16 16 16 17 16
21 18 17 18 28 30 32 33 35 37 41 39 37 37 37 37 34 32 32 31 30 28 26 26 26 26 24 22 21 21 20 19 17 16 17 16 15 17 15 14 16 19 18
17 17 14 14 21 21 27 33 32 39 41 40 40 41 38 36 35 34 34 34 32 31 28 26 26 26 25 23 21 21 20 18 17 15 15 14 16 15 13 14 17 19 20
17 17 16 14 21 26 27 26 31 36 39 40 40 41 38 37 36 36 35 35 33 31 28 27 26 25 24 23 21 20 20 19 18 15 14 13 13 13 13 14 17 18 20
14 10 11 16 21 28 30 32 32 33 36 33 34 40 39 38 38 37 36 36 33 30 27 25 26 25 24 23 21 20 20 16 15 15 12 10 11 13 14 14 16 17 22
17 9 19 18 26 35 40 35 36 37 37 35 33 39 40 39 40 39 37 37 34 31 27 25 24 25 25 23 21 19 17 16 14 13 10 8 10 12 13 15 17 20 22
20 19 15 23 31 36 37 38 41 41 38 36 35 37 39 39 41 40 38 37 35 32 29 25 23 23 25 24 21 19 17 16 14 12 9 8 10 12 13 15 18 22 24
22 25 32 32 34 39 37 36 37 39 37 36 37 38 38 35 37 38 40 39 38 34 29 25 23 23 25 23 22 20 20 18 15 11 9 8 10 12 14 15 19 21 23
35 39 33 26 29 33 37 36 37 37 37 38 38 38 39 39 38 36 41 39 38 35 31 26 22 22 23 23 20 23 23 21 17 11 9 10 11 12 13 15 17 20 21
39 46 21 25 34 39 40 36 38 37 40 39 38 38 38 39 38 40 38 39 37 35 32 28 23 21 22 23 22 24 23 20 17 12 11 11 11 11 10 11 14 15 15
33 39 35 26 12 34 39 35 36 37 37 37 37 38 38 36 38 42 39 39 37 35 34 30 25 21 21 23 23 22 19 19 17 14 14 13 11 9 8 9 11 13 15
26 30 32 27 22 21 28 32 33 36 39 39 38 39 40 38 40 39 38 36 38 34 32 32 29 25 22 22 21 22 21 18 17 15 15 13 10 8 8 9 11 14 18
22 25 29 29 23 15 27 26 33 37 41 39 37 37 38 37 38 37 38 35 35 32 30 29 30 30 26 25 24 25 22 19 18 17 16 13 10 9 9 9 12 15 18
22 23 23 26 28 35 22 29 34 39 38 37 35 35 34 35 35 35 37 35 36 41 36 35 39 38 33 32 29 27 25 22 20 19 18 15 12 9 8 9 11 14 16
14 24 23 24 31 33 21 30 36 41 40 36 34 35 34 33 33 31 29 29 36 38 37 36 39 36 33 30 27 23 22 23 22 20 19 15 11 9 7 8 10 12 15